| time (UTC) | temp F | wind direction | speed knots | gust knots | rain 1hr in | rain 24hr in | rain mn in | humidity % | barometer mb |
| 20260905180503 | 84 | 312 | 1.7 | 3.5 | 0.00 | 0.00 | 0.00 | 50 | 1016.7 |
| 20260905175951 | 84 | 314 | 1.7 | 3.5 | 0.00 | 0.00 | 0.00 | 49 | 1016.6 |
| 20260905175445 | 85 | 312 | 0.9 | 3.5 | 0.00 | 0.00 | 0.00 | 49 | 1016.6 |
| 20260905174948 | 85 | 311 | 2.6 | 3.5 | 0.00 | 0.00 | 0.00 | 49 | 1016.4 |
| 20260905174434 | 85 | 315 | 2.6 | 3.5 | 0.00 | 0.00 | 0.00 | 48 | 1016.2 |
| 20260905173441 | 85 | 318 | 1.7 | 3.5 | 0.00 | 0.00 | 0.00 | 47 | 1016.3 |
| 20260905172936 | 86 | 324 | 1.7 | 6.1 | 0.00 | 0.00 | 0.00 | 46 | 1016.3 |
| 20260905172439 | 86 | 323 | 5.2 | 6.1 | 0.00 | 0.00 | 0.00 | 46 | 1016.0 |
| 20260905170422 | 87 | 312 | 1.7 | 5.2 | 0.00 | 0.00 | 0.00 | 48 | 1016.1 |
| 20260905165421 | 88 | 303 | 3.5 | 6.1 | 0.00 | 0.00 | 0.00 | 48 | 1015.9 |
| 20260905164925 | 88 | 329 | 0.0 | 5.2 | 0.00 | 0.00 | 0.00 | 49 | 1015.9 |
| 20260905164424 | 89 | 325 | 4.3 | 5.2 | 0.00 | 0.00 | 0.00 | 48 | 1015.9 |
| 20260905163922 | 89 | 349 | 0.0 | 5.2 | 0.00 | 0.00 | 0.00 | 48 | 1016.0 |
| 20260905163427 | 89 | 320 | 2.6 | 7.8 | 0.00 | 0.00 | 0.00 | 47 | 1015.9 |
| 20260905162935 | 89 | 332 | 2.6 | 7.8 | 0.00 | 0.00 | 0.00 | 47 | 1015.6 |
| 20260905162422 | 89 | 3 | 0.0 | 5.2 | 0.00 | 0.00 | 0.00 | 46 | 1015.7 |
| 20260905161923 | 89 | 341 | 1.7 | 5.2 | 0.00 | 0.00 | 0.00 | 45 | 1015.8 |
| 20260905161424 | 90 | 333 | 0.0 | 5.2 | 0.00 | 0.00 | 0.00 | 45 | 1015.6 |
| 20260905160922 | 90 | 332 | 0.9 | 7.0 | 0.00 | 0.00 | 0.00 | 45 | 1015.7 |
| 20260905160422 | 90 | 320 | 0.9 | 7.0 | 0.00 | 0.00 | 0.00 | 45 | 1015.7 |
| 20260905155924 | 90 | 329 | 2.6 | 6.1 | 0.00 | 0.00 | 0.00 | 45 | 1015.7 |
| 20260905155421 | 90 | 314 | 1.7 | 6.1 | 0.00 | 0.00 | 0.00 | 44 | 1015.6 |
| 20260905154424 | 90 | 300 | 0.0 | 7.0 | 0.00 | 0.00 | 0.00 | 45 | 1015.5 |
| 20260905153922 | 90 | 311 | 4.3 | 9.6 | 0.00 | 0.00 | 0.00 | 44 | 1015.6 |
| 20260905153424 | 91 | 318 | 0.0 | 9.6 | 0.00 | 0.00 | 0.00 | 44 | 1015.6 |
| 20260905152428 | 91 | 313 | 2.6 | 7.8 | 0.00 | 0.00 | 0.00 | 43 | 1015.5 |
| 20260905151925 | 91 | 326 | 2.6 | 7.8 | 0.00 | 0.00 | 0.00 | 42 | 1015.7 |
| 20260905151410 | 91 | 315 | 1.7 | 7.0 | 0.00 | 0.00 | 0.00 | 41 | 1015.6 |
| 20260905150910 | 91 | 322 | 1.7 | 7.8 | 0.00 | 0.00 | 0.00 | 42 | 1015.6 |
| 20260905150413 | 91 | 329 | 1.7 | 7.8 | 0.00 | 0.00 | 0.00 | 41 | 1015.5 |
| 20260905145858 | 91 | 318 | 4.3 | 7.0 | 0.00 | 0.00 | 0.00 | 41 | 1015.7 |
| 20260905145401 | 91 | 322 | 2.6 | 8.7 | 0.00 | 0.00 | 0.00 | 41 | 1015.5 |
| 20260905144858 | 91 | 324 | 0.9 | 8.7 | 0.00 | 0.00 | 0.00 | 41 | 1015.7 |
| 20260905144350 | 92 | 306 | 2.6 | 7.0 | 0.00 | 0.00 | 0.00 | 40 | 1015.7 |
| 20260905143348 | 92 | 86 | 0.0 | 6.1 | 0.00 | 0.00 | 0.00 | 38 | 1015.7 |
| 20260905142837 | 92 | 349 | 0.9 | 6.1 | 0.00 | 0.00 | 0.00 | 37 | 1015.8 |
| 20260905142337 | 92 | 316 | 0.9 | 6.1 | 0.00 | 0.00 | 0.00 | 36 | 1015.7 |
| 20260905141838 | 92 | 326 | 3.5 | 6.1 | 0.00 | 0.00 | 0.00 | 35 | 1015.8 |
| 20260905141336 | 92 | 316 | 5.2 | 6.1 | 0.00 | 0.00 | 0.00 | 34 | 1015.8 |
| 20260905140838 | 92 | 357 | 3.5 | 5.2 | 0.00 | 0.00 | 0.00 | 35 | 1015.9 |
| 20260905140339 | 93 | 83 | 0.0 | 5.2 | 0.00 | 0.00 | 0.00 | 34 | 1016.0 |
| 20260905135840 | 93 | 291 | 0.0 | 5.2 | 0.00 | 0.00 | 0.00 | 35 | 1016.0 |
| 20260905135338 | 93 | 294 | 1.7 | 7.0 | 0.00 | 0.00 | 0.00 | 33 | 1016.3 |
| 20260905134823 | 94 | 335 | 2.6 | 7.0 | 0.00 | 0.00 | 0.00 | 32 | 1016.1 |
| 20260905134322 | 96 | 80 | 0.0 | 1.7 | 0.00 | 0.00 | 0.00 | 31 | 1015.9 |
| 20260905133824 | 97 | 343 | 0.0 | 3.5 | 0.00 | 0.00 | 0.00 | 27 | 1016.1 |
| 20260905133322 | 98 | 320 | 0.0 | 3.5 | 0.00 | 0.00 | 0.00 | 26 | 1016.2 |
| 20260905132821 | 98 | 188 | 0.0 | 1.7 | 0.00 | 0.00 | 0.00 | 26 | 1016.2 |
| 20260905131312 | 97 | 318 | 0.0 | 2.6 | 0.00 | 0.00 | 0.00 | 28 | 1016.4 |
| 20260905130810 | 96 | 311 | 0.9 | 2.6 | 0.00 | 0.00 | 0.00 | 28 | 1016.4 |
| 20260905130303 | 96 | 121 | 0.0 | 1.7 | 0.00 | 0.00 | 0.00 | 28 | 1016.4 |
| 20260905125758 | 95 | 43 | 0.9 | 3.5 | 0.00 | 0.00 | 0.00 | 29 | 1016.4 |
| 20260905125259 | 95 | 322 | 1.7 | 3.5 | 0.00 | 0.00 | 0.00 | 28 | 1016.5 |
| 20260905124800 | 95 | 17 | 0.0 | 5.2 | 0.00 | 0.00 | 0.00 | 28 | 1016.5 |
| 20260905124258 | 94 | 313 | 0.9 | 6.1 | 0.00 | 0.00 | 0.00 | 29 | 1016.3 |
| 20260905123758 | 93 | 312 | 0.9 | 6.1 | 0.00 | 0.00 | 0.00 | 30 | 1016.7 |
| 20260905123301 | 93 | 326 | 2.6 | 9.6 | 0.00 | 0.00 | 0.00 | 31 | 1016.8 |
| 20260905122746 | 92 | 327 | 4.3 | 9.6 | 0.00 | 0.00 | 0.00 | 30 | 1016.7 |
| 20260905122253 | 92 | 313 | 0.0 | 7.0 | 0.00 | 0.00 | 0.00 | 33 | 1016.9 |
| 20260905121750 | 92 | 315 | 1.7 | 7.0 | 0.00 | 0.00 | 0.00 | 32 | 1016.9 |
| 20260905121239 | 92 | 308 | 1.7 | 7.8 | 0.00 | 0.00 | 0.00 | 32 | 1016.8 |
| 20260905120734 | 92 | 307 | 7.0 | 7.8 | 0.00 | 0.00 | 0.00 | 32 | 1017.0 |
| 20260905120235 | 92 | 329 | 0.0 | 7.0 | 0.00 | 0.00 | 0.00 | 32 | 1017.0 |
| 20260905115736 | 92 | 324 | 2.6 | 6.1 | 0.00 | 0.00 | 0.00 | 32 | 1017.1 |
| 20260905114734 | 92 | 251 | 3.5 | 7.0 | 0.00 | 0.00 | 0.00 | 31 | 1017.1 |
| 20260905113742 | 92 | 156 | 0.9 | 7.0 | 0.00 | 0.00 | 0.00 | 31 | 1017.0 |
| 20260905113236 | 93 | 310 | 2.6 | 5.2 | 0.00 | 0.00 | 0.00 | 31 | 1017.4 |
| 20260905112237 | 93 | 62 | 0.0 | 1.7 | 0.00 | 0.00 | 0.00 | 33 | 1017.2 |
| 20260905111236 | 91 | 320 | 0.0 | 6.1 | 0.00 | 0.00 | 0.00 | 34 | 1017.3 |
| 20260905110734 | 92 | 318 | 0.9 | 6.1 | 0.00 | 0.00 | 0.00 | 31 | 1017.6 |
| 20260905110233 | 91 | 133 | 0.0 | 6.1 | 0.00 | 0.00 | 0.00 | 33 | 1017.8 |
| 20260905105742 | 91 | 306 | 0.0 | 6.1 | 0.00 | 0.00 | 0.00 | 35 | 1017.5 |
| 20260905105233 | 91 | 339 | 0.9 | 5.2 | 0.00 | 0.00 | 0.00 | 33 | 1017.3 |
| 20260905104737 | 90 | 317 | 2.6 | 7.0 | 0.00 | 0.00 | 0.00 | 32 | 1017.5 |
| 20260905104240 | 91 | 317 | 3.5 | 7.0 | 0.00 | 0.00 | 0.00 | 34 | 1017.6 |
| 20260905103738 | 92 | 336 | 0.9 | 5.2 | 0.00 | 0.00 | 0.00 | 30 | 1017.6 |
| 20260905103237 | 92 | 308 | 0.0 | 5.2 | 0.00 | 0.00 | 0.00 | 33 | 1017.7 |
| 20260905102225 | 91 | 354 | 0.9 | 5.2 | 0.00 | 0.00 | 0.00 | 33 | 1017.7 |
| 20260905101221 | 90 | 308 | 1.7 | 5.2 | 0.00 | 0.00 | 0.00 | 34 | 1017.7 |
| 20260905100721 | 90 | 31 | 0.9 | 5.2 | 0.00 | 0.00 | 0.00 | 33 | 1017.7 |
| 20260905095722 | 90 | 339 | 1.7 | 3.5 | 0.00 | 0.00 | 0.00 | 34 | 1017.9 |
| 20260905095222 | 90 | 297 | 1.7 | 2.6 | 0.00 | 0.00 | 0.00 | 32 | 1017.7 |
| 20260905094727 | 89 | 8 | 0.0 | 3.5 | 0.00 | 0.00 | 0.00 | 36 | 1017.8 |
| 20260905094226 | 90 | 309 | 1.7 | 2.6 | 0.00 | 0.00 | 0.00 | 32 | 1018.0 |
| 20260905093726 | 89 | 303 | 0.0 | 3.5 | 0.00 | 0.00 | 0.00 | 35 | 1018.0 |
| 20260905093224 | 90 | 296 | 1.7 | 3.5 | 0.00 | 0.00 | 0.00 | 32 | 1018.0 |
| 20260905092724 | 90 | 304 | 0.0 | 0.9 | 0.00 | 0.00 | 0.00 | 37 | 1018.1 |
| 20260905092222 | 90 | 304 | 0.0 | 1.7 | 0.00 | 0.00 | 0.00 | 35 | 1017.7 |
| 20260905091723 | 91 | 300 | 0.0 | 1.7 | 0.00 | 0.00 | 0.00 | 37 | 1017.7 |
| 20260905085700 | 85 | 294 | 0.0 | 1.7 | 0.00 | 0.00 | 0.00 | 45 | 1017.6 |
| 20260905085158 | 85 | 294 | 0.0 | 1.7 | 0.00 | 0.00 | 0.00 | 43 | 1017.9 |
| 20260905084649 | 84 | 305 | 0.0 | 0.9 | 0.00 | 0.00 | 0.00 | 43 | 1018.0 |
| 20260905083647 | 84 | 303 | 0.0 | 0.9 | 0.00 | 0.00 | 0.00 | 49 | 1018.2 |
| 20260905083135 | 83 | 308 | 0.0 | 1.7 | 0.00 | 0.00 | 0.00 | 46 | 1018.1 |
| 20260905082640 | 82 | 309 | 0.9 | 1.7 | 0.00 | 0.00 | 0.00 | 49 | 1018.1 |
| 20260905082139 | 82 | 160 | 0.0 | 0.0 | 0.00 | 0.00 | 0.00 | 48 | 1018.0 |
| 20260905081622 | 82 | 160 | 0.0 | 0.0 | 0.00 | 0.00 | 0.00 | 51 | 1018.0 |
| 20260905080623 | 80 | 160 | 0.0 | 0.0 | 0.00 | 0.00 | 0.00 | 53 | 1018.0 |
| 20260905075627 | 79 | 160 | 0.0 | 0.0 | 0.00 | 0.00 | 0.00 | 52 | 1017.7 |
| 20260905074624 | 78 | 160 | 0.0 | 0.9 | 0.00 | 0.00 | 0.00 | 52 | 1017.6 |
| 20260905073624 | 76 | 154 | 0.0 | 0.9 | 0.00 | 0.00 | 0.00 | 56 | 1017.8 |
| 20260905073125 | 75 | 274 | 0.0 | 0.9 | 0.00 | 0.00 | 0.00 | 58 | 1017.8 |
| 20260905072110 | 73 | 266 | 0.0 | 0.9 | 0.00 | 0.00 | 0.00 | 63 | 1017.7 |
| 20260905071612 | 73 | 246 | 0.0 | 0.9 | 0.00 | 0.00 | 0.00 | 63 | 1017.8 |
| 20260905071110 | 72 | 247 | 0.0 | 0.9 | 0.00 | 0.00 | 0.00 | 61 | 1017.9 |
| 20260905070559 | 71 | 247 | 0.0 | 0.9 | 0.00 | 0.00 | 0.00 | 66 | 1017.9 |
| 20260905065559 | 68 | 247 | 0.0 | 0.9 | 0.00 | 0.00 | 0.00 | 69 | 1017.7 |
| 20260905065047 | 68 | 247 | 0.0 | 0.9 | 0.00 | 0.00 | 0.00 | 69 | 1017.5 |
| 20260905064546 | 69 | 246 | 0.0 | 0.0 | 0.00 | 0.00 | 0.00 | 67 | 1017.5 |
| 20260905064051 | 68 | 246 | 0.0 | 0.0 | 0.00 | 0.00 | 0.00 | 68 | 1017.8 |
| 20260905063533 | 67 | 247 | 0.0 | 0.0 | 0.00 | 0.00 | 0.00 | 69 | 1017.9 |
| 20260905063040 | 67 | 247 | 0.0 | 0.9 | 0.00 | 0.00 | 0.00 | 71 | 1017.9 |
| 20260905062534 | 66 | 248 | 0.9 | 0.9 | 0.00 | 0.00 | 0.00 | 71 | 1017.9 |
| 20260905062039 | 65 | 247 | 0.0 | 0.9 | 0.00 | 0.00 | 0.00 | 73 | 1017.9 |
| 20260905061536 | 65 | 247 | 0.0 | 0.9 | 0.00 | 0.00 | 0.00 | 73 | 1017.9 |
| 20260905061035 | 64 | 263 | 0.9 | 0.9 | 0.00 | 0.00 | 0.00 | 72 | 1017.9 |
| 20260905060534 | 63 | 263 | 0.0 | 0.9 | 0.00 | 0.00 | 0.00 | 75 | 1018.1 |
| 20260905060033 | 63 | 263 | 0.0 | 0.9 | 0.00 | 0.00 | 0.00 | 75 | 1018.0 |
| 20260905055521 | 62 | 265 | 0.0 | 0.9 | 0.00 | 0.00 | 0.00 | 76 | 1017.9 |
| 20260905055039 | 61 | 265 | 0.0 | 0.0 | 0.00 | 0.00 | 0.00 | 78 | 1018.0 |
| 20260905054522 | 60 | 274 | 0.0 | 0.0 | 0.00 | 0.00 | 0.00 | 80 | 1018.0 |
| 20260905054030 | 59 | 274 | 0.0 | 0.0 | 0.00 | 0.00 | 0.00 | 83 | 1017.9 |
| 20260905053526 | 59 | 274 | 0.0 | 0.0 | 0.00 | 0.00 | 0.00 | 84 | 1018.1 |
| 20260905053031 | 58 | 274 | 0.0 | 0.0 | 0.00 | 0.00 | 0.00 | 84 | 1018.1 |
| 20260905052512 | 58 | 274 | 0.0 | 0.0 | 0.00 | 0.00 | 0.00 | 84 | 1018.0 |
| 20260905052014 | 58 | 274 | 0.0 | 0.0 | 0.00 | 0.00 | 0.00 | 83 | 1018.1 |
| 20260905051446 | 58 | 274 | 0.0 | 0.0 | 0.00 | 0.00 | 0.00 | 84 | 1018.1 |
| 20260905050953 | 58 | 274 | 0.0 | 0.0 | 0.00 | 0.00 | 0.00 | 83 | 1018.1 |
| 20260905050454 | 58 | 274 | 0.0 | 0.0 | 0.00 | 0.00 | 0.00 | 84 | 1017.9 |
| 20260905045950 | 58 | 274 | 0.0 | 0.0 | 0.00 | 0.00 | 0.00 | 84 | 1018.0 |
| 20260905045436 | 58 | 274 | 0.0 | 0.0 | 0.00 | 0.00 | 0.00 | 84 | 1017.9 |
| 20260905044939 | 58 | 274 | 0.0 | 0.0 | 0.00 | 0.00 | 0.00 | 83 | 1017.7 |
| 20260905044437 | 58 | 275 | 0.0 | 0.0 | 0.00 | 0.00 | 0.00 | 83 | 1018.0 |
| 20260905043948 | 58 | 275 | 0.0 | 0.0 | 0.00 | 0.00 | 0.00 | 83 | 1017.9 |
| 20260905043437 | 58 | 275 | 0.0 | 0.0 | 0.00 | 0.00 | 0.00 | 83 | 1017.6 |
| 20260905042940 | 58 | 275 | 0.0 | 0.0 | 0.00 | 0.00 | 0.00 | 83 | 1017.8 |
| 20260905042441 | 58 | 275 | 0.0 | 0.0 | 0.00 | 0.00 | 0.00 | 83 | 1017.7 |
| 20260905041939 | 58 | 275 | 0.0 | 0.9 | 0.00 | 0.00 | 0.00 | 82 | 1017.6 |
| 20260905041437 | 58 | 275 | 0.0 | 0.9 | 0.00 | 0.00 | 0.00 | 81 | 1017.5 |
| 20260905040434 | 59 | 274 | 0.0 | 0.0 | 0.00 | 0.00 | 0.00 | 80 | 1017.7 |
| 20260905035936 | 59 | 274 | 0.0 | 0.9 | 0.00 | 0.00 | 0.00 | 80 | 1017.7 |
| 20260905035436 | 59 | 274 | 0.0 | 0.9 | 0.00 | 0.00 | 0.00 | 81 | 1017.6 |
| 20260905034936 | 59 | 274 | 0.0 | 0.0 | 0.00 | 0.00 | 0.00 | 80 | 1017.4 |
| 20260905034424 | 59 | 274 | 0.0 | 0.9 | 0.00 | 0.00 | 0.00 | 80 | 1017.5 |
| 20260905033924 | 59 | 274 | 0.0 | 0.9 | 0.00 | 0.00 | 0.00 | 80 | 1017.7 |
| 20260905033422 | 58 | 274 | 0.0 | 0.0 | 0.00 | 0.00 | 0.00 | 81 | 1017.4 |
| 20260905032927 | 59 | 274 | 0.0 | 0.0 | 0.00 | 0.00 | 0.00 | 80 | 1017.6 |
| 20260905031426 | 59 | 274 | 0.0 | 0.0 | 0.00 | 0.00 | 0.00 | 79 | 1017.6 |
| 20260905030930 | 59 | 274 | 0.0 | 0.0 | 0.00 | 0.00 | 0.00 | 78 | 1017.8 |
| 20260905030422 | 60 | 274 | 0.0 | 0.0 | 0.00 | 0.00 | 0.00 | 77 | 1017.7 |
| 20260905025927 | 60 | 274 | 0.0 | 0.0 | 0.00 | 0.00 | 0.00 | 76 | 1017.7 |
| 20260905024358 | 60 | 274 | 0.0 | 0.9 | 0.00 | 0.00 | 0.00 | 74 | 1017.8 |
| 20260905023848 | 60 | 275 | 0.9 | 0.9 | 0.00 | 0.00 | 0.00 | 75 | 1017.8 |
| 20260905023346 | 60 | 274 | 0.0 | 0.0 | 0.00 | 0.00 | 0.00 | 75 | 1017.7 |
| 20260905022835 | 60 | 274 | 0.0 | 0.0 | 0.00 | 0.00 | 0.00 | 75 | 1017.6 |
| 20260905022334 | 60 | 274 | 0.0 | 0.0 | 0.00 | 0.00 | 0.00 | 73 | 1017.7 |
| 20260905021836 | 60 | 274 | 0.0 | 0.0 | 0.00 | 0.00 | 0.00 | 73 | 1017.5 |
| 20260905021336 | 60 | 273 | 0.0 | 0.0 | 0.00 | 0.00 | 0.00 | 73 | 1017.6 |
| 20260905020838 | 60 | 275 | 0.0 | 0.0 | 0.00 | 0.00 | 0.00 | 73 | 1017.6 |
| 20260905020323 | 60 | 275 | 0.0 | 0.0 | 0.00 | 0.00 | 0.00 | 72 | 1017.6 |
| 20260905015824 | 60 | 275 | 0.0 | 0.0 | 0.00 | 0.00 | 0.00 | 71 | 1017.3 |
| 20260905015324 | 60 | 274 | 0.0 | 0.0 | 0.00 | 0.00 | 0.00 | 72 | 1017.7 |
| 20260905014821 | 61 | 274 | 0.0 | 0.0 | 0.00 | 0.00 | 0.00 | 71 | 1017.5 |
| 20260905014326 | 61 | 275 | 0.0 | 0.9 | 0.00 | 0.00 | 0.00 | 71 | 1017.5 |
| 20260905013827 | 61 | 276 | 0.0 | 0.9 | 0.00 | 0.00 | 0.00 | 72 | 1017.5 |
| 20260905013325 | 61 | 275 | 0.0 | 0.0 | 0.00 | 0.00 | 0.00 | 71 | 1017.7 |
| 20260905012328 | 61 | 275 | 0.0 | 0.0 | 0.00 | 0.00 | 0.00 | 70 | 1017.5 |
| 20260905011821 | 61 | 275 | 0.0 | 0.0 | 0.00 | 0.00 | 0.00 | 70 | 1017.6 |
| 20260905011323 | 61 | 275 | 0.0 | 0.0 | 0.00 | 0.00 | 0.00 | 70 | 1017.4 |
| 20260905010824 | 61 | 275 | 0.0 | 0.0 | 0.00 | 0.00 | 0.00 | 71 | 1017.5 |
| 20260905010325 | 62 | 275 | 0.0 | 0.0 | 0.00 | 0.00 | 0.00 | 71 | 1017.3 |
| 20260905005823 | 62 | 275 | 0.0 | 0.0 | 0.00 | 0.00 | 0.00 | 72 | 1017.5 |
| 20260905005327 | 62 | 275 | 0.0 | 0.0 | 0.00 | 0.00 | 0.00 | 71 | 1017.7 |
| 20260905004328 | 62 | 275 | 0.0 | 0.0 | 0.00 | 0.00 | 0.00 | 71 | 1017.6 |
| 20260905003824 | 63 | 275 | 0.0 | 0.0 | 0.00 | 0.00 | 0.00 | 71 | 1017.6 |
| 20260905003324 | 63 | 275 | 0.0 | 0.0 | 0.00 | 0.00 | 0.00 | 70 | 1017.6 |
| 20260905002826 | 63 | 280 | 0.0 | 0.0 | 0.00 | 0.00 | 0.00 | 68 | 1017.7 |
| 20260905002331 | 63 | 280 | 0.0 | 0.0 | 0.00 | 0.00 | 0.00 | 69 | 1017.8 |
| 20260905001822 | 63 | 280 | 0.0 | 0.0 | 0.00 | 0.00 | 0.00 | 69 | 1017.7 |
| 20260905001326 | 63 | 280 | 0.0 | 0.0 | 0.00 | 0.00 | 0.00 | 69 | 1017.7 |
| 20260905000828 | 63 | 280 | 0.0 | 0.0 | 0.00 | 0.00 | 0.00 | 69 | 1017.8 |
| 20260905000325 | 63 | 280 | 0.0 | 0.0 | 0.00 | 0.00 | 0.00 | 68 | 1017.7 |
| 20260904235758 | 64 | 280 | 0.0 | 0.0 | 0.00 | 0.00 | 0.00 | 68 | 1017.6 |
| 20260904235306 | 64 | 280 | 0.0 | 0.9 | 0.00 | 0.00 | 0.00 | 68 | 1017.8 |
| 20260904234237 | 64 | 277 | 0.0 | 1.7 | 0.00 | 0.00 | 0.00 | 69 | 1017.8 |
| 20260904233721 | 64 | 263 | 0.0 | 0.0 | 0.00 | 0.00 | 0.00 | 69 | 1017.8 |
| 20260904233224 | 64 | 263 | 0.0 | 0.0 | 0.00 | 0.00 | 0.00 | 68 | 1017.9 |
| 20260904232726 | 65 | 263 | 0.0 | 0.0 | 0.00 | 0.00 | 0.00 | 68 | 1018.0 |
| 20260904232225 | 65 | 263 | 0.0 | 0.0 | 0.00 | 0.00 | 0.00 | 68 | 1018.1 |
| 20260904231724 | 65 | 263 | 0.0 | 0.0 | 0.00 | 0.00 | 0.00 | 67 | 1017.9 |
| 20260904231222 | 65 | 263 | 0.0 | 0.0 | 0.00 | 0.00 | 0.00 | 67 | 1017.8 |
| 20260904230722 | 65 | 263 | 0.0 | 0.0 | 0.00 | 0.00 | 0.00 | 67 | 1017.8 |
| 20260904230224 | 65 | 263 | 0.0 | 0.0 | 0.00 | 0.00 | 0.00 | 67 | 1018.0 |
| 20260904225711 | 65 | 263 | 0.0 | 0.0 | 0.00 | 0.00 | 0.00 | 66 | 1017.9 |
| 20260904224654 | 65 | 263 | 0.0 | 0.0 | 0.00 | 0.00 | 0.00 | 66 | 1017.8 |
| 20260904223649 | 66 | 278 | 0.0 | 0.0 | 0.00 | 0.00 | 0.00 | 66 | 1017.9 |
| 20260904222637 | 67 | 279 | 0.0 | 0.0 | 0.00 | 0.00 | 0.00 | 64 | 1017.8 |
| 20260904222142 | 67 | 279 | 0.0 | 0.0 | 0.00 | 0.00 | 0.00 | 63 | 1017.8 |
| 20260904221637 | 67 | 279 | 0.0 | 0.9 | 0.00 | 0.00 | 0.00 | 63 | 1017.9 |
| 20260904220636 | 68 | 279 | 0.0 | 0.0 | 0.00 | 0.00 | 0.00 | 62 | 1018.0 |
| 20260904220133 | 68 | 279 | 0.0 | 0.9 | 0.00 | 0.00 | 0.00 | 61 | 1018.1 |
| 20260904215138 | 68 | 278 | 0.0 | 0.0 | 0.00 | 0.00 | 0.00 | 61 | 1018.0 |
| 20260904214639 | 69 | 280 | 0.0 | 0.0 | 0.00 | 0.00 | 0.00 | 60 | 1017.9 |
| 20260904214137 | 69 | 280 | 0.0 | 0.0 | 0.00 | 0.00 | 0.00 | 60 | 1017.8 |
| 20260904213639 | 70 | 280 | 0.0 | 0.0 | 0.00 | 0.00 | 0.00 | 59 | 1017.7 |
| 20260904213136 | 70 | 281 | 0.0 | 0.0 | 0.00 | 0.00 | 0.00 | 57 | 1017.9 |
| 20260904212637 | 70 | 281 | 0.0 | 0.0 | 0.00 | 0.00 | 0.00 | 57 | 1018.0 |
| 20260904212136 | 71 | 281 | 0.0 | 0.9 | 0.00 | 0.00 | 0.00 | 57 | 1017.9 |
| 20260904211134 | 71 | 278 | 0.0 | 0.9 | 0.00 | 0.00 | 0.00 | 56 | 1018.1 |
| 20260904210636 | 71 | 273 | 0.0 | 0.0 | 0.00 | 0.00 | 0.00 | 56 | 1018.0 |
| 20260904210133 | 72 | 274 | 0.0 | 0.9 | 0.00 | 0.00 | 0.00 | 56 | 1017.9 |
| 20260904205637 | 72 | 278 | 0.0 | 0.9 | 0.00 | 0.00 | 0.00 | 55 | 1018.0 |
| 20260904205136 | 72 | 248 | 0.0 | 0.0 | 0.00 | 0.00 | 0.00 | 56 | 1018.0 |
| 20260904204633 | 72 | 240 | 0.0 | 0.0 | 0.00 | 0.00 | 0.00 | 56 | 1017.8 |
| 20260904204134 | 72 | 240 | 0.0 | 0.0 | 0.00 | 0.00 | 0.00 | 55 | 1017.7 |
| 20260904203645 | 72 | 240 | 0.0 | 0.0 | 0.00 | 0.00 | 0.00 | 55 | 1017.8 |
| 20260904203137 | 73 | 240 | 0.0 | 0.0 | 0.00 | 0.00 | 0.00 | 56 | 1017.9 |
| 20260904202638 | 73 | 242 | 0.0 | 0.0 | 0.00 | 0.00 | 0.00 | 56 | 1017.9 |
| 20260904201637 | 74 | 215 | 0.0 | 0.0 | 0.00 | 0.00 | 0.00 | 55 | 1017.9 |
| 20260904201137 | 75 | 215 | 0.0 | 0.0 | 0.00 | 0.00 | 0.00 | 54 | 1017.8 |
| 20260904200639 | 75 | 225 | 0.0 | 0.0 | 0.00 | 0.00 | 0.00 | 53 | 1017.9 |
| 20260904200135 | 75 | 227 | 0.0 | 0.0 | 0.00 | 0.00 | 0.00 | 53 | 1017.9 |
| 20260904195634 | 76 | 235 | 0.0 | 0.0 | 0.00 | 0.00 | 0.00 | 52 | 1017.7 |
| 20260904194133 | 76 | 196 | 0.0 | 0.0 | 0.00 | 0.00 | 0.00 | 51 | 1017.9 |
| 20260904193636 | 76 | 196 | 0.0 | 0.0 | 0.00 | 0.00 | 0.00 | 51 | 1017.6 |
| 20260904193144 | 77 | 196 | 0.0 | 0.9 | 0.00 | 0.00 | 0.00 | 50 | 1017.6 |
| 20260904192636 | 77 | 200 | 0.0 | 0.9 | 0.00 | 0.00 | 0.00 | 49 | 1017.7 |
| 20260904192138 | 78 | 201 | 0.0 | 0.9 | 0.00 | 0.00 | 0.00 | 49 | 1017.6 |
| 20260904191626 | 78 | 195 | 0.0 | 0.9 | 0.00 | 0.00 | 0.00 | 49 | 1017.5 |
| 20260904191127 | 78 | 140 | 0.0 | 0.9 | 0.00 | 0.00 | 0.00 | 48 | 1017.6 |
| 20260904190624 | 79 | 110 | 0.0 | 0.9 | 0.00 | 0.00 | 0.00 | 46 | 1017.6 |
| 20260904190122 | 80 | 96 | 0.0 | 0.9 | 0.00 | 0.00 | 0.00 | 45 | 1017.5 |
| 20260904185625 | 81 | 12 | 0.0 | 0.9 | 0.00 | 0.00 | 0.00 | 42 | 1017.5 |
| 20260904185121 | 82 | 333 | 0.0 | 0.9 | 0.00 | 0.00 | 0.00 | 40 | 1017.5 |
| 20260904184626 | 83 | 23 | 0.0 | 1.7 | 0.00 | 0.00 | 0.00 | 39 | 1017.3 |
| 20260904184124 | 84 | 305 | 0.0 | 1.7 | 0.00 | 0.00 | 0.00 | 37 | 1017.2 |
| 20260904183621 | 85 | 303 | 0.0 | 1.7 | 0.00 | 0.00 | 0.00 | 36 | 1017.1 |
| 20260904183122 | 86 | 305 | 0.0 | 2.6 | 0.00 | 0.00 | 0.00 | 34 | 1017.4 |
| 20260904182632 | 86 | 310 | 0.0 | 3.5 | 0.00 | 0.00 | 0.00 | 33 | 1017.0 |
| 20260904182113 | 86 | 346 | 2.6 | 3.5 | 0.00 | 0.00 | 0.00 | 32 | 1016.9 |
| 20260904181612 | 87 | 318 | 0.9 | 5.2 | 0.00 | 0.00 | 0.00 | 32 | 1016.9 |